This is the latest recevied weather packets stored in our database for station/object EA8DNP-14. If no packets are shown the sender has not sent any weather packets the latest 1 day(s).
| Time | Temp. | Humidity | Pressure | Rain* | Wind** | Luminosity | Snow |
|---|---|---|---|---|---|---|---|
| 1788646293 | 19.44° C | 31% | 906 hPa | - | - | - | - |
| 1788645393 | 20.56° C | 29% | 905.9 hPa | - | - | - | - |
| 1788644493 | 21.67° C | 27% | 905.6 hPa | - | - | - | - |
| 1788643592 | 21.11° C | 29% | 905.7 hPa | - | - | - | - |
| 1788642692 | 20° C | 31% | 905.5 hPa | - | - | - | - |
| 1788641792 | 20° C | 30% | 905.6 hPa | - | - | - | - |
| 1788640892 | 20° C | 29% | 905.4 hPa | - | - | - | - |
| 1788639992 | 20.56° C | 27% | 905.3 hPa | - | - | - | - |
| 1788639095 | 21.67° C | 25% | 905 hPa | - | - | - | - |
| 1788638192 | 22.22° C | 24% | 904.8 hPa | - | - | - | - |
| 1788637292 | 22.22° C | 24% | 904.7 hPa | - | - | - | - |
| 1788636392 | 22.78° C | 23% | 904.6 hPa | - | - | - | - |
| 1788635491 | 23.33° C | 23% | 904.6 hPa | - | - | - | - |
| 1788634591 | 23.89° C | 23% | 904.6 hPa | - | - | - | - |
| 1788633691 | 24.44° C | 23% | 904.4 hPa | - | - | - | - |
| 1788632791 | 25° C | 25% | 904.4 hPa | - | - | - | - |
| 1788631891 | 26.11° C | 26% | 904.3 hPa | - | - | - | - |
| 1788630991 | 26.11° C | 27% | 904.3 hPa | - | - | - | - |
| 1788630091 | 26.67° C | 26% | 904.3 hPa | - | - | - | - |
| 1788629191 | 27.22° C | 26% | 904.3 hPa | - | - | - | - |
| 1788628291 | 27.78° C | 25% | 904.1 hPa | - | - | - | - |
| 1788627390 | 28.33° C | 24% | 904.3 hPa | - | - | - | - |
| 1788626490 | 28.33° C | 24% | 904.1 hPa | - | - | - | - |
| 1788625590 | 28.33° C | 24% | 904 hPa | - | - | - | - |
| 1788624690 | 29.44° C | 24% | 903.7 hPa | - | - | - | - |
* Rain since midnight (hover to see other rain measurements)
** Current wind speed in m/s (hover to see current wind gust speed)